BCS436 EGNX-EKCH

Flight info

Callsign BCS436
Flight time 1h 27m
Altitude 39000
Route TNT M868 ADELU L60 MAMUL L603 LAMIX UT29 LIBSO UL975 ERDOW DCT RENEQ DCT TALSA P729 TUDLO
Aircraft B738/M-SDE2E3FGHIRWXY/LB1

Departure

Time 2026-05-05 15:35
Airport East Midlands Airport (EGNX)

Arrival

Time 2026-05-05 17:03
Airport Copenhagen Kastrup Airport (EKCH)
Time Latitude Longitude Altitude Speed Heading
2026-05-05 15:00 52.82736 -1.34770 313 ft 0 kts 178°
2026-05-05 15:19 52.82739 -1.34770 313 ft 2 kts 178°
2026-05-05 15:19 52.82758 -1.34771 313 ft 4 kts 178°
2026-05-05 15:19 52.82787 -1.34773 313 ft 4 kts 178°
2026-05-05 15:20 52.82812 -1.34774 313 ft 3 kts 178°
2026-05-05 15:20 52.82826 -1.34778 312 ft 2 kts 129°
2026-05-05 15:20 52.82829 -1.34794 313 ft 1 kts 89°
2026-05-05 15:20 52.82829 -1.34796 313 ft 0 kts 89°
2026-05-05 15:28 52.82829 -1.34795 314 ft 0 kts 89°
2026-05-05 15:29 52.82829 -1.34755 313 ft 8 kts 91°
2026-05-05 15:29 52.82831 -1.34620 313 ft 15 kts 86°
2026-05-05 15:29 52.82857 -1.34441 311 ft 17 kts 37°
2026-05-05 15:29 52.82907 -1.34310 311 ft 14 kts 92°
2026-05-05 15:30 52.82908 -1.34140 310 ft 16 kts 90°
2026-05-05 15:30 52.82911 -1.33945 309 ft 18 kts 88°
2026-05-05 15:30 52.82915 -1.33720 309 ft 21 kts 88°
2026-05-05 15:30 52.82921 -1.33466 308 ft 23 kts 88°
2026-05-05 15:31 52.82924 -1.33199 305 ft 24 kts 88°
2026-05-05 15:31 52.82930 -1.32922 303 ft 25 kts 88°
2026-05-05 15:31 52.82935 -1.32628 302 ft 25 kts 89°
2026-05-05 15:31 52.82938 -1.32347 300 ft 24 kts 88°
2026-05-05 15:32 52.82944 -1.32077 299 ft 24 kts 88°
2026-05-05 15:32 52.82950 -1.31787 297 ft 25 kts 90°
2026-05-05 15:32 52.82954 -1.31510 296 ft 24 kts 88°
2026-05-05 15:32 52.83002 -1.31315 295 ft 15 kts
2026-05-05 15:33 52.83014 -1.31317 295 ft 0 kts 354°
2026-05-05 15:34 52.83020 -1.31318 295 ft 3 kts 356°
2026-05-05 15:34 52.83064 -1.31320 295 ft 9 kts 359°
2026-05-05 15:34 52.83125 -1.31362 297 ft 11 kts 294°
2026-05-05 15:34 52.83124 -1.31507 298 ft 18 kts 269°
2026-05-05 15:35 52.83113 -1.32092 300 ft 86 kts 268°
2026-05-05 15:35 52.83087 -1.33432 308 ft 145 kts 269°
2026-05-05 15:35 52.83063 -1.35268 654 ft 165 kts 271°
2026-05-05 15:35 52.83052 -1.37182 1429 ft 170 kts 270°
2026-05-05 15:36 52.83158 -1.39102 2204 ft 169 kts 295°
2026-05-05 15:36 52.83824 -1.40876 2561 ft 197 kts 304°
2026-05-05 15:36 52.84534 -1.42989 2790 ft 223 kts 299°
2026-05-05 15:36 52.85303 -1.45317 3193 ft 239 kts 301°
2026-05-05 15:37 52.86136 -1.47790 3615 ft 256 kts 301°
2026-05-05 15:37 52.86950 -1.50239 4378 ft 260 kts 300°
2026-05-05 15:37 52.87841 -1.52883 5173 ft 266 kts 303°
2026-05-05 15:37 52.88966 -1.55323 5822 ft 267 kts 315°
2026-05-05 15:38 52.90370 -1.57354 5980 ft 269 kts 327°
2026-05-05 15:38 52.91981 -1.58899 6000 ft 268 kts 336°
2026-05-05 15:38 52.93704 -1.60054 6007 ft 267 kts 342°
2026-05-05 15:38 52.95453 -1.61067 6004 ft 266 kts 342°
2026-05-05 15:39 52.97184 -1.62079 6000 ft 267 kts 341°
2026-05-05 15:39 52.98937 -1.63117 6010 ft 267 kts 341°
2026-05-05 15:39 53.00685 -1.64158 6001 ft 267 kts 341°
2026-05-05 15:39 53.02434 -1.65207 6002 ft 267 kts 341°
2026-05-05 15:40 53.04176 -1.66258 6000 ft 266 kts 341°
2026-05-05 15:40 53.05914 -1.67312 6031 ft 266 kts 340°
2026-05-05 15:40 53.07672 -1.68398 6506 ft 270 kts 341°
2026-05-05 15:40 53.09423 -1.69482 7376 ft 270 kts 340°
2026-05-05 15:41 53.11158 -1.70558 8257 ft 268 kts 339°
2026-05-05 15:41 53.12922 -1.71653 8992 ft 274 kts 339°
2026-05-05 15:41 53.14729 -1.72775 9701 ft 279 kts 338°
2026-05-05 15:41 53.16603 -1.73706 10329 ft 289 kts 351°
2026-05-05 15:42 53.18689 -1.73488 10517 ft 315 kts 12°
2026-05-05 15:42 53.20878 -1.72499 10700 ft 337 kts 13°
2026-05-05 15:42 53.23207 -1.71490 11016 ft 352 kts 13°
2026-05-05 15:42 53.25605 -1.70487 11611 ft 358 kts 12°
2026-05-05 15:43 53.28034 -1.69501 12309 ft 361 kts 12°
2026-05-05 15:43 53.30487 -1.68520 13022 ft 365 kts 11°
2026-05-05 15:43 53.32972 -1.67525 13737 ft 369 kts 12°
2026-05-05 15:43 53.35382 -1.66118 14370 ft 376 kts 24°
2026-05-05 15:44 53.37621 -1.63793 15023 ft 382 kts 37°
2026-05-05 15:44 53.39608 -1.60798 15694 ft 387 kts 42°
2026-05-05 15:44 53.41578 -1.57674 16326 ft 392 kts 44°
2026-05-05 15:44 53.43191 -1.53949 16879 ft 402 kts 66°
2026-05-05 15:45 53.43806 -1.49372 17471 ft 408 kts 90°
2026-05-05 15:45 53.43472 -1.44658 18148 ft 409 kts 102°
2026-05-05 15:45 53.42945 -1.39933 18693 ft 414 kts 101°
2026-05-05 15:45 53.42477 -1.35207 19225 ft 418 kts 100°
2026-05-05 15:46 53.42018 -1.30380 19791 ft 421 kts 100°
2026-05-05 15:46 53.41487 -1.25539 20348 ft 424 kts 105°
2026-05-05 15:46 53.40685 -1.20778 20890 ft 426 kts 109°
2026-05-05 15:46 53.39783 -1.16032 21421 ft 429 kts 110°
2026-05-05 15:47 53.38855 -1.11260 21940 ft 433 kts 110°
2026-05-05 15:47 53.38238 -1.08067 22274 ft 435 kts 110°
2026-05-05 15:47 53.37009 -1.01576 22949 ft 440 kts 110°
2026-05-05 15:47 53.36096 -0.96676 23429 ft 443 kts 110°
2026-05-05 15:48 53.35180 -0.91726 23865 ft 446 kts 109°
2026-05-05 15:48 53.34275 -0.86827 24306 ft 447 kts 109°
2026-05-05 15:48 53.33353 -0.81853 24775 ft 448 kts 109°
2026-05-05 15:48 53.32424 -0.76873 25225 ft 449 kts 109°
2026-05-05 15:49 53.31651 -0.71793 25627 ft 454 kts 99°
2026-05-05 15:49 53.31661 -0.66495 25998 ft 460 kts 82°
2026-05-05 15:49 53.32537 -0.61350 26440 ft 461 kts 67°
2026-05-05 15:49 53.33945 -0.56520 26879 ft 462 kts 64°
2026-05-05 15:50 53.35377 -0.51689 27244 ft 465 kts 64°
2026-05-05 15:50 53.36314 -0.48464 27471 ft 466 kts 65°
2026-05-05 15:50 53.37707 -0.43560 27825 ft 468 kts 65°
2026-05-05 15:50 53.39535 -0.37007 28316 ft 470 kts 65°
2026-05-05 15:51 53.40915 -0.32037 28692 ft 471 kts 65°
2026-05-05 15:51 53.42319 -0.27045 29015 ft 474 kts 65°
2026-05-05 15:51 53.43731 -0.22045 29350 ft 475 kts 65°
2026-05-05 15:51 53.45147 -0.17024 29732 ft 476 kts 65°
2026-05-05 15:52 53.46550 -0.12037 30212 ft 473 kts 65°
2026-05-05 15:52 53.47475 -0.08738 30488 ft 472 kts 65°
2026-05-05 15:52 53.49315 -0.02156 31059 ft 468 kts 65°
2026-05-05 15:52 53.50697 0.02803 31258 ft 472 kts 65°
2026-05-05 15:53 53.52084 0.07587 31456 ft 475 kts 62°
2026-05-05 15:53 53.53795 0.11948 31877 ft 472 kts 51°
2026-05-05 15:53 53.55223 0.14682 32275 ft 468 kts 47°
2026-05-05 15:53 53.58185 0.20009 32778 ft 466 kts 47°
2026-05-05 15:54 53.59640 0.22652 33018 ft 465 kts 47°
2026-05-05 15:54 53.61828 0.26669 33337 ft 464 kts 48°
2026-05-05 15:54 53.63992 0.30681 33812 ft 461 kts 48°
2026-05-05 15:54 53.66130 0.34672 34190 ft 458 kts 48°
2026-05-05 15:55 53.68954 0.39967 34428 ft 460 kts 48°
2026-05-05 15:55 53.70397 0.42680 34584 ft 460 kts 48°
2026-05-05 15:55 53.72537 0.46706 34784 ft 461 kts 48°
2026-05-05 15:55 53.74652 0.50690 35025 ft 462 kts 48°
2026-05-05 15:56 53.76801 0.54747 35168 ft 464 kts 48°
2026-05-05 15:56 53.78955 0.58816 35409 ft 464 kts 48°
2026-05-05 15:56 53.81108 0.62890 35590 ft 465 kts 48°
2026-05-05 15:56 53.83258 0.66965 35830 ft 465 kts 48°
2026-05-05 15:57 53.85411 0.71051 36036 ft 465 kts 48°
2026-05-05 15:57 53.87563 0.75143 36254 ft 465 kts 48°
2026-05-05 15:57 53.89677 0.79287 36438 ft 466 kts 52°
2026-05-05 15:57 53.91389 0.83858 36621 ft 466 kts 64°
2026-05-05 15:58 53.92615 0.88944 36822 ft 466 kts 73°
2026-05-05 15:58 53.93353 0.94288 37029 ft 465 kts 81°
2026-05-05 15:58 53.93889 0.99696 37201 ft 466 kts 81°
2026-05-05 15:58 53.94424 1.05131 37349 ft 467 kts 81°
2026-05-05 15:59 53.94964 1.10574 37513 ft 468 kts 81°
2026-05-05 15:59 53.95514 1.16023 37697 ft 468 kts 81°
2026-05-05 15:59 53.96069 1.21459 37888 ft 468 kts 81°
2026-05-05 15:59 53.96624 1.26847 38047 ft 469 kts 81°
2026-05-05 16:00 53.97185 1.32293 38194 ft 470 kts 81°
2026-05-05 16:00 53.97749 1.37765 38336 ft 471 kts 81°
2026-05-05 16:00 53.98310 1.43243 38508 ft 471 kts 81°
2026-05-05 16:00 53.98870 1.48722 38671 ft 471 kts 81°
2026-05-05 16:01 53.99427 1.54214 38759 ft 472 kts 81°
2026-05-05 16:01 53.99983 1.59717 38873 ft 472 kts 81°
2026-05-05 16:01 54.00535 1.65223 38966 ft 473 kts 81°
2026-05-05 16:02 54.01630 1.76208 38979 ft 474 kts 81°
2026-05-05 16:02 54.02719 1.87245 38977 ft 472 kts 81°
2026-05-05 16:03 54.03793 1.98227 38975 ft 470 kts 81°
2026-05-05 16:03 54.04853 2.09181 38978 ft 468 kts 81°
2026-05-05 16:04 54.05900 2.20116 38976 ft 468 kts 81°
2026-05-05 16:04 54.06936 2.31034 38980 ft 468 kts 81°
2026-05-05 16:05 54.07957 2.41904 38977 ft 469 kts 82°
2026-05-05 16:05 54.08977 2.52877 38978 ft 470 kts 82°
2026-05-05 16:06 54.09991 2.63902 38980 ft 471 kts 82°
2026-05-05 16:06 54.10997 2.74949 38978 ft 472 kts 82°
2026-05-05 16:07 54.11960 2.85640 38983 ft 474 kts 82°
2026-05-05 16:07 54.12950 2.96754 38984 ft 475 kts 82°
2026-05-05 16:08 54.13935 3.07911 38978 ft 476 kts 82°
2026-05-05 16:08 54.14910 3.19095 38974 ft 477 kts 82°
2026-05-05 16:09 54.15869 3.30215 38979 ft 477 kts 82°
2026-05-05 16:09 54.16824 3.41405 38981 ft 477 kts 82°
2026-05-05 16:10 54.17769 3.52613 38980 ft 477 kts 83°
2026-05-05 16:10 54.18703 3.63820 38980 ft 477 kts 83°
2026-05-05 16:11 54.19620 3.74948 38979 ft 476 kts 83°
2026-05-05 16:12 54.21434 3.97359 38978 ft 476 kts 83°
2026-05-05 16:13 54.23637 4.25291 38975 ft 476 kts 83°
2026-05-05 16:13 54.24985 4.36333 38986 ft 476 kts 72°
2026-05-05 16:14 54.29143 4.57863 38981 ft 477 kts 72°
2026-05-05 16:15 54.33138 4.79488 38982 ft 478 kts 73°
2026-05-05 16:16 54.37079 5.01294 38978 ft 480 kts 73°
2026-05-05 16:17 54.40019 5.17713 38986 ft 480 kts 73°
2026-05-05 16:18 54.42927 5.34093 38973 ft 481 kts 73°
2026-05-05 16:19 54.45828 5.50586 38970 ft 481 kts 73°
2026-05-05 16:19 54.48706 5.67099 38976 ft 481 kts 73°
2026-05-05 16:20 54.52495 5.89073 38975 ft 481 kts 74°
2026-05-05 16:22 54.57195 6.16715 38973 ft 481 kts 74°
2026-05-05 16:23 54.60899 6.38815 38982 ft 482 kts 74°
2026-05-05 16:23 54.63666 6.55504 38963 ft 482 kts 74°
2026-05-05 16:24 54.65498 6.66646 38972 ft 482 kts 74°
2026-05-05 16:25 54.68216 6.83313 38964 ft 483 kts 75°
2026-05-05 16:25 54.70922 7.00066 38965 ft 483 kts 75°
2026-05-05 16:26 54.74495 7.22450 38966 ft 483 kts 75°
2026-05-05 16:27 54.76255 7.33584 38965 ft 483 kts 75°
2026-05-05 16:27 54.78018 7.44811 38991 ft 483 kts 75°
2026-05-05 16:28 54.79772 7.56061 38966 ft 484 kts 75°
2026-05-05 16:28 54.81519 7.67343 38954 ft 484 kts 75°
2026-05-05 16:29 54.83243 7.78551 38958 ft 485 kts 75°
2026-05-05 16:29 54.84973 7.89870 38947 ft 485 kts 75°
2026-05-05 16:30 54.86691 8.01194 38945 ft 486 kts 76°
2026-05-05 16:30 54.88402 8.12557 38942 ft 486 kts 76°
2026-05-05 16:31 54.90093 8.23857 38930 ft 486 kts 76°
2026-05-05 16:31 54.91781 8.35226 38940 ft 486 kts 76°
2026-05-05 16:32 54.93462 8.46622 38942 ft 486 kts 76°
2026-05-05 16:32 54.95132 8.58025 38939 ft 486 kts 76°
2026-05-05 16:33 54.96779 8.69355 38948 ft 487 kts 76°
2026-05-05 16:33 54.98429 8.80789 38930 ft 487 kts 76°
2026-05-05 16:34 55.00068 8.92231 38932 ft 487 kts 76°
2026-05-05 16:34 55.01698 9.03693 38931 ft 487 kts 76°
2026-05-05 16:35 55.02514 9.09466 38531 ft 494 kts 77°
2026-05-05 16:35 55.03323 9.15213 37932 ft 493 kts 77°
2026-05-05 16:35 55.04136 9.21001 37357 ft 490 kts 77°
2026-05-05 16:35 55.04941 9.26758 36743 ft 489 kts 77°
2026-05-05 16:36 55.05742 9.32506 36163 ft 487 kts 77°
2026-05-05 16:36 55.06535 9.38226 35537 ft 486 kts 77°
2026-05-05 16:36 55.07329 9.43968 34877 ft 487 kts 77°
2026-05-05 16:36 55.08120 9.49710 34224 ft 487 kts 77°
2026-05-05 16:37 55.08908 9.55455 33463 ft 488 kts 77°
2026-05-05 16:37 55.09687 9.61147 32702 ft 488 kts 77°
2026-05-05 16:37 55.10473 9.66910 31964 ft 488 kts 77°
2026-05-05 16:37 55.11334 9.72642 31300 ft 487 kts 74°
2026-05-05 16:38 55.12317 9.78298 30576 ft 486 kts 72°
2026-05-05 16:38 55.13353 9.83935 29794 ft 488 kts 72°
2026-05-05 16:38 55.14397 9.89549 29152 ft 484 kts 72°
2026-05-05 16:38 55.15422 9.95115 28531 ft 479 kts 72°
2026-05-05 16:39 55.16419 10.00617 27976 ft 473 kts 72°
2026-05-05 16:39 55.17384 10.06019 27403 ft 469 kts 73°
2026-05-05 16:39 55.18344 10.11447 26835 ft 465 kts 73°
2026-05-05 16:39 55.19290 10.16828 26288 ft 461 kts 73°
2026-05-05 16:40 55.20225 10.22172 25724 ft 458 kts 73°
2026-05-05 16:40 55.21153 10.27488 25180 ft 455 kts 73°
2026-05-05 16:40 55.22073 10.32766 24638 ft 452 kts 73°
2026-05-05 16:40 55.22986 10.38019 24070 ft 450 kts 73°
2026-05-05 16:41 55.23893 10.43254 23521 ft 448 kts 73°
2026-05-05 16:41 55.24795 10.48475 22871 ft 446 kts 73°
2026-05-05 16:41 55.25690 10.53664 22282 ft 443 kts 73°
2026-05-05 16:41 55.26562 10.58734 21737 ft 440 kts 73°
2026-05-05 16:42 55.27438 10.63843 21182 ft 436 kts 73°
2026-05-05 16:42 55.28308 10.68925 20606 ft 434 kts 73°
2026-05-05 16:42 55.29174 10.73983 20055 ft 432 kts 73°
2026-05-05 16:42 55.30035 10.79018 19516 ft 429 kts 73°
2026-05-05 16:43 55.30890 10.84029 18979 ft 427 kts 73°
2026-05-05 16:43 55.31741 10.89026 18419 ft 426 kts 73°
2026-05-05 16:43 55.32572 10.93930 17835 ft 424 kts 73°
2026-05-05 16:43 55.33407 10.98882 17263 ft 421 kts 73°
2026-05-05 16:44 55.34227 11.03791 16725 ft 417 kts 73°
2026-05-05 16:44 55.35035 11.08663 16197 ft 414 kts 73°
2026-05-05 16:44 55.35835 11.13499 15665 ft 410 kts 73°
2026-05-05 16:44 55.36626 11.18293 15154 ft 407 kts 73°
2026-05-05 16:45 55.37410 11.23050 14655 ft 403 kts 73°
2026-05-05 16:45 55.38185 11.27766 14145 ft 400 kts 73°
2026-05-05 16:45 55.38945 11.32399 13630 ft 398 kts 73°
2026-05-05 16:45 55.39706 11.37051 13083 ft 395 kts 73°
2026-05-05 16:46 55.40459 11.41670 12633 ft 389 kts 73°
2026-05-05 16:46 55.41189 11.46161 12515 ft 375 kts 73°
2026-05-05 16:46 55.41894 11.50504 12346 ft 363 kts 73°
2026-05-05 16:46 55.42576 11.54714 12188 ft 352 kts 73°
2026-05-05 16:47 55.43237 11.58810 12045 ft 342 kts 73°
2026-05-05 16:47 55.43896 11.62766 11897 ft 332 kts 69°
2026-05-05 16:47 55.44952 11.66261 11626 ft 325 kts 51°
2026-05-05 16:47 55.46287 11.69427 11373 ft 320 kts 51°
2026-05-05 16:48 55.47574 11.72604 11088 ft 317 kts 52°
2026-05-05 16:48 55.48827 11.75777 10815 ft 314 kts 53°
2026-05-05 16:48 55.50057 11.78934 10540 ft 311 kts 53°
2026-05-05 16:48 55.51270 11.82071 10269 ft 308 kts 53°
2026-05-05 16:49 55.52460 11.85155 10008 ft 305 kts 53°
2026-05-05 16:49 55.53646 11.88239 9741 ft 302 kts 53°
2026-05-05 16:49 55.54815 11.91297 9450 ft 299 kts 53°
2026-05-05 16:49 55.55956 11.94290 9180 ft 296 kts 54°
2026-05-05 16:50 55.57097 11.97285 8920 ft 292 kts 54°
2026-05-05 16:50 55.58226 12.00248 8660 ft 289 kts 54°
2026-05-05 16:50 55.59341 12.03177 8407 ft 285 kts 54°
2026-05-05 16:50 55.60430 12.06044 8162 ft 282 kts 54°
2026-05-05 16:51 55.61517 12.08910 7915 ft 279 kts 54°
2026-05-05 16:51 55.62695 12.11580 7662 ft 273 kts 40°
2026-05-05 16:51 55.64163 12.13642 7488 ft 267 kts 36°
2026-05-05 16:51 55.65604 12.15719 7244 ft 267 kts 38°
2026-05-05 16:52 55.66999 12.17817 7021 ft 266 kts 38°
2026-05-05 16:52 55.68343 12.20052 6783 ft 267 kts 50°
2026-05-05 16:52 55.69008 12.23090 6550 ft 270 kts 85°
2026-05-05 16:52 55.68666 12.26332 6331 ft 269 kts 115°
2026-05-05 16:53 55.67561 12.28978 6094 ft 269 kts 137°
2026-05-05 16:53 55.66132 12.31090 5860 ft 267 kts 140°
2026-05-05 16:53 55.64713 12.33197 5648 ft 264 kts 138°
2026-05-05 16:53 55.63315 12.35295 5418 ft 262 kts 137°
2026-05-05 16:54 55.61908 12.37333 5192 ft 262 kts 144°
2026-05-05 16:54 55.60201 12.38348 4982 ft 262 kts 181°
2026-05-05 16:54 55.58488 12.37578 4885 ft 260 kts 208°
2026-05-05 16:54 55.57012 12.35748 4764 ft 261 kts 221°
2026-05-05 16:55 55.55640 12.33599 4610 ft 265 kts 223°
2026-05-05 16:55 55.54267 12.31414 4460 ft 267 kts 222°
2026-05-05 16:55 55.52876 12.29239 4309 ft 264 kts 222°
2026-05-05 16:55 55.51513 12.27136 4163 ft 257 kts 221°
2026-05-05 16:56 55.50186 12.25102 4012 ft 248 kts 221°
2026-05-05 16:56 55.48866 12.23202 3866 ft 242 kts 211°
2026-05-05 16:56 55.47314 12.22520 3755 ft 232 kts 171°
2026-05-05 16:56 55.45833 12.23531 3654 ft 230 kts 142°
2026-05-05 16:57 55.44746 12.25567 3523 ft 229 kts 117°
2026-05-05 16:57 55.44231 12.28179 3387 ft 225 kts 96°
2026-05-05 16:57 55.44009 12.30900 3235 ft 227 kts 96°
2026-05-05 16:57 55.43761 12.33658 3099 ft 229 kts 95°
2026-05-05 16:58 55.43847 12.36395 2920 ft 222 kts 64°
2026-05-05 16:58 55.44816 12.38335 2843 ft 207 kts 34°
2026-05-05 16:58 55.45916 12.39879 2709 ft 197 kts 39°
2026-05-05 16:58 55.46929 12.41378 2561 ft 188 kts 37°
2026-05-05 16:59 55.47909 12.42820 2454 ft 182 kts 38°
2026-05-05 16:59 55.48847 12.44251 2339 ft 173 kts 39°
2026-05-05 16:59 55.49722 12.45607 2245 ft 165 kts 39°
2026-05-05 16:59 55.50549 12.46893 2149 ft 153 kts 39°
2026-05-05 17:00 55.51323 12.48095 2027 ft 144 kts 39°
2026-05-05 17:00 55.52071 12.49257 1924 ft 144 kts 39°
2026-05-05 17:00 55.52833 12.50438 1747 ft 145 kts 39°
2026-05-05 17:00 55.53572 12.51587 1534 ft 142 kts 39°
2026-05-05 17:01 55.54311 12.52735 1357 ft 143 kts 39°
2026-05-05 17:01 55.55059 12.53895 1151 ft 142 kts 40°
2026-05-05 17:01 55.55797 12.55042 962 ft 141 kts 40°
2026-05-05 17:01 55.56535 12.56187 749 ft 142 kts 39°
2026-05-05 17:02 55.57278 12.57338 575 ft 142 kts 39°
2026-05-05 17:02 55.58016 12.58493 372 ft 142 kts 39°
2026-05-05 17:02 55.58748 12.59626 201 ft 138 kts 37°
2026-05-05 17:02 55.59462 12.60722 29 ft 134 kts 38°
2026-05-05 17:03 55.60075 12.61666 21 ft 98 kts 41°
2026-05-05 17:03 55.60490 12.62264 19 ft 58 kts 27°
2026-05-05 17:03 55.60608 12.62333 20 ft 0 kts
2026-05-05 17:04 55.60610 12.62334 20 ft 0 kts
2026-05-05 17:06 55.60674 12.62352 19 ft 0 kts 12°
2026-05-05 17:06 55.60692 12.62359 19 ft 5 kts 13°
2026-05-05 17:06 55.60744 12.62381 19 ft 10 kts 13°
2026-05-05 17:07 55.60816 12.62444 19 ft 13 kts 39°
2026-05-05 17:07 55.60894 12.62561 18 ft 16 kts 41°
2026-05-05 17:07 55.60988 12.62704 18 ft 19 kts 41°
2026-05-05 17:07 55.61096 12.62867 19 ft 22 kts 39°
2026-05-05 17:08 55.61212 12.63048 17 ft 23 kts 38°
2026-05-05 17:08 55.61330 12.63231 17 ft 21 kts 41°
2026-05-05 17:08 55.61442 12.63405 16 ft 21 kts 41°
2026-05-05 17:08 55.61552 12.63574 16 ft 21 kts 41°
2026-05-05 17:09 55.61657 12.63737 17 ft 20 kts 42°
2026-05-05 17:09 55.61752 12.63886 16 ft 16 kts 41°
2026-05-05 17:09 55.61837 12.64017 17 ft 16 kts 40°
2026-05-05 17:09 55.61921 12.64114 19 ft 13 kts 25°
2026-05-05 17:10 55.62003 12.64180 19 ft 13 kts 23°
2026-05-05 17:10 55.62079 12.64242 21 ft 12 kts 26°
2026-05-05 17:10 55.62149 12.64303 20 ft 11 kts 25°
2026-05-05 17:10 55.62221 12.64362 20 ft 12 kts 23°
2026-05-05 17:11 55.62298 12.64405 20 ft 12 kts 17°
2026-05-05 17:11 55.62374 12.64443 20 ft 11 kts 14°
2026-05-05 17:11 55.62446 12.64474 20 ft 10 kts 13°
2026-05-05 17:11 55.62507 12.64432 20 ft 8 kts 311°
2026-05-05 17:12 55.62534 12.64368 20 ft 6 kts 306°
2026-05-05 17:12 55.62559 12.64306 21 ft 6 kts 305°
2026-05-05 17:12 55.62591 12.64266 21 ft 6 kts 353°
2026-05-05 17:12 55.62621 12.64293 22 ft 4 kts 64°
2026-05-05 17:13 55.62617 12.64343 23 ft 5 kts 102°
2026-05-05 17:13 55.62620 12.64401 20 ft 5 kts 73°
2026-05-05 17:13 55.62628 12.64430 21 ft 0 kts 66°